Time,TemperatureF,DewpointF,PressureIn,WindDirection,WindDirectionDegrees,WindSpeedMPH,WindSpeedGustMPH,Humidity,HourlyPrecipIn,Conditions,Clouds,dailyrainin,SolarRadiationWatts/m^2,SoftwareType,DateUTC
2013-05-19 00:01:00,58.0,58.0,-100.00,South,186,5.0,12.0,100,0.00,,,0.03,0.000000,,2013-05-19 04:01:00,
2013-05-19 00:33:00,58.0,58.0,-100.00,South,186,5.0,12.0,100,0.00,,,0.03,0.000000,,2013-05-19 04:33:00,
2013-05-19 00:42:00,58.0,58.0,-100.00,South,186,5.0,12.0,100,0.00,,,0.03,0.000000,,2013-05-19 04:42:00,
2013-05-19 00:53:00,58.0,58.0,-100.00,South,186,5.0,12.0,100,0.00,,,0.03,0.000000,,2013-05-19 04:53:00,
2013-05-19 01:01:00,58.0,58.0,-100.00,South,191,6.0,11.0,100,0.01,,,0.04,0.000000,,2013-05-19 05:01:00,
2013-05-19 01:32:00,58.0,58.0,-100.00,South,191,6.0,11.0,100,0.01,,,0.04,0.000000,,2013-05-19 05:32:00,
2013-05-19 01:42:00,58.0,58.0,-100.00,South,191,6.0,11.0,100,0.01,,,0.04,0.000000,,2013-05-19 05:42:00,
2013-05-19 01:52:00,58.0,58.0,-100.00,South,191,6.0,11.0,100,0.01,,,0.04,0.000000,,2013-05-19 05:52:00,
2013-05-19 02:01:00,58.0,58.0,-100.00,South,191,6.0,13.0,100,0.01,,,0.05,0.000000,,2013-05-19 06:01:00,
2013-05-19 02:32:00,58.0,58.0,-100.00,South,191,6.0,13.0,100,0.01,,,0.05,0.000000,,2013-05-19 06:32:00,
2013-05-19 02:42:00,58.0,58.0,-100.00,South,191,6.0,13.0,100,0.01,,,0.05,0.000000,,2013-05-19 06:42:00,
2013-05-19 02:52:00,58.0,58.0,-100.00,South,191,6.0,13.0,100,0.01,,,0.05,0.000000,,2013-05-19 06:52:00,
2013-05-19 03:01:00,57.0,57.0,-100.00,South,179,5.0,12.0,100,0.00,,,0.05,0.000000,,2013-05-19 07:01:00,
2013-05-19 03:32:00,57.0,57.0,-100.00,South,179,5.0,12.0,100,0.00,,,0.05,0.000000,,2013-05-19 07:32:00,
2013-05-19 03:42:00,57.0,57.0,-100.00,South,179,5.0,12.0,100,0.00,,,0.05,0.000000,,2013-05-19 07:42:00,
2013-05-19 03:52:00,57.0,57.0,-100.00,South,179,5.0,12.0,100,0.00,,,0.05,0.000000,,2013-05-19 07:52:00,
2013-05-19 04:01:00,57.0,57.0,-100.00,South,187,7.0,12.0,100,0.01,,,0.06,0.000000,,2013-05-19 08:01:00,
2013-05-19 04:32:00,57.0,57.0,-100.00,South,187,7.0,12.0,100,0.01,,,0.06,0.000000,,2013-05-19 08:32:00,
2013-05-19 04:42:00,57.0,57.0,-100.00,South,187,7.0,12.0,100,0.01,,,0.06,0.000000,,2013-05-19 08:42:00,
2013-05-19 04:52:00,57.0,57.0,-100.00,South,187,7.0,12.0,100,0.01,,,0.06,0.000000,,2013-05-19 08:52:00,
2013-05-19 05:01:00,57.0,57.0,-100.00,South,183,5.0,12.0,100,0.00,,,0.06,0.000000,,2013-05-19 09:01:00,
2013-05-19 05:33:00,57.0,57.0,-100.00,South,183,5.0,12.0,100,0.00,,,0.06,0.000000,,2013-05-19 09:33:00,
2013-05-19 05:43:00,57.0,57.0,-100.00,South,183,5.0,12.0,100,0.00,,,0.06,0.000000,,2013-05-19 09:43:00,
2013-05-19 05:53:00,57.0,57.0,-100.00,South,183,5.0,12.0,100,0.00,,,0.06,0.000000,,2013-05-19 09:53:00,
2013-05-19 06:01:00,57.0,57.0,-100.00,South,184,6.0,13.0,100,0.01,,,0.07,0.000000,,2013-05-19 10:01:00,
2013-05-19 06:23:00,57.0,57.0,-100.00,South,184,6.0,13.0,100,0.01,,,0.07,0.000000,,2013-05-19 10:23:00,
2013-05-19 06:33:00,57.0,57.0,-100.00,South,184,6.0,13.0,100,0.01,,,0.07,0.000000,,2013-05-19 10:33:00,
2013-05-19 06:42:00,57.0,57.0,-100.00,South,184,6.0,13.0,100,0.01,,,0.07,0.000000,,2013-05-19 10:42:00,
2013-05-19 06:53:00,57.0,57.0,-100.00,South,184,6.0,13.0,100,0.01,,,0.07,0.000000,,2013-05-19 10:53:00,
2013-05-19 07:01:00,57.0,57.0,-100.00,South,185,5.0,12.0,100,0.00,,,0.06,6.000000,,2013-05-19 11:01:00,
2013-05-19 07:32:00,57.0,57.0,-100.00,South,185,5.0,12.0,100,0.00,,,0.06,6.000000,,2013-05-19 11:32:00,
2013-05-19 07:42:00,57.0,57.0,-100.00,South,185,5.0,12.0,100,0.00,,,0.06,6.000000,,2013-05-19 11:42:00,
2013-05-19 07:53:00,57.0,57.0,-100.00,South,185,5.0,12.0,100,0.00,,,0.06,6.000000,,2013-05-19 11:53:00,
2013-05-19 08:01:00,57.0,57.0,-100.00,South,176,4.0,12.0,100,0.00,,,0.06,23.000000,,2013-05-19 12:01:00,
2013-05-19 08:32:00,57.0,57.0,-100.00,South,176,4.0,12.0,100,0.00,,,0.06,23.000000,,2013-05-19 12:32:00,
2013-05-19 08:42:00,57.0,57.0,-100.00,South,176,4.0,12.0,100,0.00,,,0.06,23.000000,,2013-05-19 12:42:00,
2013-05-19 08:52:00,57.0,57.0,-100.00,South,176,4.0,12.0,100,0.00,,,0.06,23.000000,,2013-05-19 12:52:00,
2013-05-19 10:01:00,58.0,58.0,-100.00,South,186,5.0,10.0,100,-99.99,,,0.07,83.000000,,2013-05-19 14:01:00,
2013-05-19 10:32:00,58.0,58.0,-100.00,South,186,5.0,10.0,100,-99.99,,,0.07,83.000000,,2013-05-19 14:32:00,
2013-05-19 10:42:00,58.0,58.0,-100.00,South,186,5.0,10.0,100,-99.99,,,0.07,83.000000,,2013-05-19 14:42:00,
2013-05-19 10:52:00,58.0,58.0,-100.00,South,186,5.0,10.0,100,-99.99,,,0.07,83.000000,,2013-05-19 14:52:00,
2013-05-19 11:01:00,59.0,59.0,-100.00,South,184,4.0,10.0,100,0.00,,,0.07,80.000000,,2013-05-19 15:01:00,
2013-05-19 11:33:00,59.0,59.0,-100.00,South,184,4.0,10.0,100,0.00,,,0.07,80.000000,,2013-05-19 15:33:00,
2013-05-19 11:43:00,59.0,59.0,-100.00,South,184,4.0,10.0,100,0.00,,,0.07,80.000000,,2013-05-19 15:43:00,
2013-05-19 11:53:00,59.0,59.0,-100.00,South,184,4.0,10.0,100,0.00,,,0.07,80.000000,,2013-05-19 15:53:00,
2013-05-19 12:01:00,59.0,59.0,-100.00,SSW,200,5.0,9.0,100,0.01,,,0.08,97.000000,,2013-05-19 16:01:00,
2013-05-19 12:33:00,59.0,59.0,-100.00,SSW,200,5.0,9.0,100,0.01,,,0.08,97.000000,,2013-05-19 16:33:00,
2013-05-19 12:42:00,59.0,59.0,-100.00,SSW,200,5.0,9.0,100,0.01,,,0.08,97.000000,,2013-05-19 16:42:00,
2013-05-19 12:52:00,59.0,59.0,-100.00,SSW,200,5.0,9.0,100,0.01,,,0.08,97.000000,,2013-05-19 16:52:00,
2013-05-19 13:01:00,60.0,60.0,-100.00,SSW,196,4.0,9.0,100,0.02,,,0.10,117.000000,,2013-05-19 17:01:00,
2013-05-19 13:32:00,60.0,60.0,-100.00,SSW,196,4.0,9.0,100,0.02,,,0.10,117.000000,,2013-05-19 17:32:00,
2013-05-19 13:43:00,60.0,60.0,-100.00,SSW,196,4.0,9.0,100,0.02,,,0.10,117.000000,,2013-05-19 17:43:00,
2013-05-19 13:52:00,60.0,60.0,-100.00,SSW,196,4.0,9.0,100,0.02,,,0.10,117.000000,,2013-05-19 17:52:00,
2013-05-19 14:01:00,60.0,60.0,-100.00,South,175,5.0,9.0,100,0.01,,,0.11,189.000000,,2013-05-19 18:01:00,
2013-05-19 14:32:00,60.0,60.0,-100.00,South,175,5.0,9.0,100,0.01,,,0.11,189.000000,,2013-05-19 18:32:00,
2013-05-19 14:43:00,60.0,60.0,-100.00,South,175,5.0,9.0,100,0.01,,,0.11,189.000000,,2013-05-19 18:43:00,
2013-05-19 14:53:00,60.0,60.0,-100.00,South,175,5.0,9.0,100,0.01,,,0.11,189.000000,,2013-05-19 18:53:00,
2013-05-19 15:01:00,59.0,59.0,-100.00,South,180,5.0,12.0,100,0.00,,,0.11,96.000000,,2013-05-19 19:01:00,
2013-05-19 15:32:00,59.0,59.0,-100.00,South,180,5.0,12.0,100,0.00,,,0.11,96.000000,,2013-05-19 19:32:00,
2013-05-19 15:42:00,59.0,59.0,-100.00,South,180,5.0,12.0,100,0.00,,,0.11,96.000000,,2013-05-19 19:42:00,
2013-05-19 15:52:00,59.0,59.0,-100.00,South,180,5.0,12.0,100,0.00,,,0.11,96.000000,,2013-05-19 19:52:00,
2013-05-19 16:01:00,60.0,60.0,-100.00,South,177,4.0,11.0,100,0.00,,,0.11,113.000000,,2013-05-19 20:01:00,
2013-05-19 16:32:00,60.0,60.0,-100.00,South,177,4.0,11.0,100,0.00,,,0.11,113.000000,,2013-05-19 20:32:00,
2013-05-19 16:42:00,60.0,60.0,-100.00,South,177,4.0,11.0,100,0.00,,,0.11,113.000000,,2013-05-19 20:42:00,
2013-05-19 16:52:00,60.0,60.0,-100.00,South,177,4.0,11.0,100,0.00,,,0.11,113.000000,,2013-05-19 20:52:00,
2013-05-19 17:01:00,59.0,59.0,-100.00,South,181,5.0,10.0,100,0.00,,,0.10,111.000000,,2013-05-19 21:01:00,
2013-05-19 17:32:00,59.0,59.0,-100.00,South,181,5.0,10.0,100,0.00,,,0.10,111.000000,,2013-05-19 21:32:00,
2013-05-19 17:43:00,59.0,59.0,-100.00,South,181,5.0,10.0,100,0.00,,,0.10,111.000000,,2013-05-19 21:43:00,
2013-05-19 17:53:00,59.0,59.0,-100.00,South,181,5.0,10.0,100,0.00,,,0.10,111.000000,,2013-05-19 21:53:00,
2013-05-19 18:01:00,60.0,60.0,-100.00,South,183,4.0,11.0,100,0.00,,,0.09,112.000000,,2013-05-19 22:01:00,
2013-05-19 18:33:00,60.0,60.0,-100.00,South,183,4.0,11.0,100,0.00,,,0.09,112.000000,,2013-05-19 22:33:00,
2013-05-19 18:43:00,60.0,60.0,-100.00,South,183,4.0,11.0,100,0.00,,,0.09,112.000000,,2013-05-19 22:43:00,
2013-05-19 18:53:00,60.0,60.0,-100.00,South,183,4.0,11.0,100,0.00,,,0.09,112.000000,,2013-05-19 22:53:00,
2013-05-19 19:01:00,59.0,59.0,-100.00,South,180,3.0,9.0,100,0.01,,,0.10,42.000000,,2013-05-19 23:01:00,
2013-05-19 19:32:00,59.0,59.0,-100.00,South,180,3.0,9.0,100,0.01,,,0.10,42.000000,,2013-05-19 23:32:00,
2013-05-19 19:42:00,59.0,59.0,-100.00,South,180,3.0,9.0,100,0.01,,,0.10,42.000000,,2013-05-19 23:42:00,
2013-05-19 19:52:00,59.0,59.0,-100.00,South,180,3.0,9.0,100,0.01,,,0.10,42.000000,,2013-05-19 23:52:00,
2013-05-19 20:01:00,59.0,59.0,-100.00,South,188,4.0,9.0,100,0.00,,,0.10,11.000000,,2013-05-20 00:01:00,
2013-05-19 20:22:00,59.0,59.0,-100.00,South,188,4.0,9.0,100,0.00,,,0.10,11.000000,,2013-05-20 00:22:00,
2013-05-19 20:32:00,59.0,59.0,-100.00,South,188,4.0,9.0,100,0.00,,,0.10,11.000000,,2013-05-20 00:32:00,
2013-05-19 20:42:00,59.0,59.0,-100.00,South,188,4.0,9.0,100,0.00,,,0.10,11.000000,,2013-05-20 00:42:00,
2013-05-19 20:52:00,59.0,59.0,-100.00,South,188,4.0,9.0,100,0.00,,,0.10,11.000000,,2013-05-20 00:52:00,
2013-05-19 21:01:00,59.0,59.0,-100.00,South,182,3.0,6.0,100,0.00,,,0.10,1.000000,,2013-05-20 01:01:00,
2013-05-19 21:32:00,59.0,59.0,-100.00,South,182,3.0,6.0,100,0.00,,,0.10,1.000000,,2013-05-20 01:32:00,
2013-05-19 21:42:00,59.0,59.0,-100.00,South,182,3.0,6.0,100,0.00,,,0.10,1.000000,,2013-05-20 01:42:00,
2013-05-19 21:52:00,59.0,59.0,-100.00,South,182,3.0,6.0,100,0.00,,,0.10,1.000000,,2013-05-20 01:52:00,
2013-05-19 22:01:00,59.0,59.0,-100.00,South,179,3.0,7.0,100,0.00,,,0.10,0.000000,,2013-05-20 02:01:00,
2013-05-19 22:22:00,59.0,59.0,-100.00,South,179,3.0,7.0,100,0.00,,,0.10,0.000000,,2013-05-20 02:22:00,
2013-05-19 22:32:00,59.0,59.0,-100.00,South,179,3.0,7.0,100,0.00,,,0.10,0.000000,,2013-05-20 02:32:00,
2013-05-19 22:42:00,59.0,59.0,-100.00,South,179,3.0,7.0,100,0.00,,,0.10,0.000000,,2013-05-20 02:42:00,
2013-05-19 22:52:00,59.0,59.0,-100.00,South,179,3.0,7.0,100,0.00,,,0.10,0.000000,,2013-05-20 02:52:00,
2013-05-19 23:01:00,60.0,60.0,-100.00,South,177,3.0,7.0,100,0.01,,,0.11,0.000000,,2013-05-20 03:01:00,
2013-05-19 23:33:00,60.0,60.0,-100.00,South,177,3.0,7.0,100,0.01,,,0.11,0.000000,,2013-05-20 03:33:00,
2013-05-19 23:43:00,60.0,60.0,-100.00,South,177,3.0,7.0,100,0.01,,,0.11,0.000000,,2013-05-20 03:43:00,
2013-05-19 23:53:00,60.0,60.0,-100.00,South,177,3.0,7.0,100,0.01,,,0.11,0.000000,,2013-05-20 03:53:00,